RH
19 16 11 6 5 5 4 5 4 5 5 5 5 7 11 16 18 16 16 22 27 23 19 20 22 24 33 46 52 46 31 21 21 24 26 30 32 33 35 35 33 32
28 27 22 16 11 7 5 4 5 5 5 5 6 7 12 18 20 19 17 22 27 22 18 20 21 26 39 50 47 33 20 19 24 28 31 33 34 35 36 35 33 33
27 30 30 27 20 14 9 5 5 6 6 6 6 7 12 18 23 22 19 22 26 22 18 20 22 32 46 49 38 23 18 23 29 33 34 35 36 37 37 37 36 36
26 30 33 33 29 24 18 11 6 5 6 7 7 9 13 19 24 25 21 22 26 22 18 21 27 39 49 43 29 20 22 29 34 36 37 38 39 40 40 40 40 39
21 26 32 35 35 31 27 20 11 6 6 7 8 11 15 19 24 27 24 22 24 22 19 23 34 44 45 35 23 22 29 36 40 42 42 42 41 42 42 42 42 42
16 21 28 35 38 37 34 28 20 13 9 7 9 13 18 22 25 28 27 23 22 22 20 27 41 44 37 27 22 26 35 44 48 48 45 44 43 42 41 39 40 40
15 17 22 30 36 38 38 34 29 23 17 12 12 16 22 25 25 28 29 24 22 21 20 31 43 39 29 24 25 31 41 49 51 47 44 43 41 37 36 38 40 41
13 14 17 22 29 34 37 37 34 32 28 22 18 20 28 29 25 27 30 26 23 20 20 33 41 33 25 24 28 36 45 48 46 43 41 39 35 36 41 48 50 49
12 12 14 16 21 27 33 37 37 37 37 33 27 28 35 35 28 28 29 27 25 19 21 33 38 31 26 27 34 43 47 45 41 40 38 35 35 41 50 56 58 57
19 14 13 14 16 19 25 32 37 39 40 38 35 38 45 43 33 29 29 28 26 21 21 33 36 29 27 31 42 51 49 43 41 39 36 36 41 46 50 56 61 63
28 20 15 14 15 14 16 23 31 37 39 38 40 46 54 51 38 31 29 29 28 22 21 31 34 29 29 36 48 55 50 43 41 39 38 42 47 47 49 56 62 64
36 31 22 18 19 20 17 16 21 29 35 39 44 52 61 59 45 34 30 30 29 24 22 29 32 28 30 40 52 55 48 44 43 41 42 49 51 50 54 58 60 62
44 44 38 27 25 28 25 18 15 18 25 33 43 53 63 63 50 36 30 30 29 24 22 28 30 27 30 43 54 52 46 45 44 42 47 54 55 55 59 60 59 61
50 54 52 42 34 31 28 23 18 15 16 22 29 43 59 64 54 38 30 30 29 23 23 27 28 27 32 46 55 50 45 45 43 42 48 54 56 57 60 61 58 59
52 55 56 51 42 33 28 28 25 19 18 19 23 35 53 61 52 39 30 28 26 22 22 26 28 28 36 50 56 50 44 44 43 43 48 53 56 58 60 60 57 56
53 55 57 55 48 40 33 29 27 24 22 23 26 34 46 48 40 32 27 24 23 20 21 26 29 30 40 53 57 51 46 44 42 43 48 53 56 58 59 57 54 56
51 53 55 54 52 49 43 35 30 28 25 24 24 27 30 29 25 23 22 21 20 19 21 28 29 32 44 56 58 55 49 42 38 42 51 57 58 58 57 57 55 54
53 53 54 54 55 54 52 48 42 35 30 27 25 23 23 21 18 18 19 21 20 19 23 29 29 34 48 57 59 57 48 39 38 46 56 59 59 58 56 57 56 53
60 59 57 57 58 58 57 55 51 46 42 36 31 28 25 21 19 17 17 20 20 19 25 30 31 38 51 58 60 56 47 40 43 51 59 59 59 60 57 54 54 54
65 64 62 60 60 62 61 57 54 53 53 49 44 38 30 23 21 20 19 20 20 21 26 31 34 44 55 59 60 56 47 43 47 54 60 60 61 65 61 55 55 53
68 69 69 68 66 65 63 60 57 55 57 56 54 50 42 32 25 22 21 22 21 22 26 31 37 48 55 57 59 56 49 46 49 55 61 63 66 70 67 61 59 56
73 74 76 78 78 74 70 66 61 58 59 60 58 57 53 43 32 25 24 24 24 24 26 30 39 47 51 54 58 58 52 48 51 57 61 65 71 74 71 66 64 61
75 76 78 81 83 82 79 75 70 64 61 61 61 60 58 52 42 32 27 26 27 26 26 32 41 48 49 53 59 59 54 52 54 58 59 65 75 77 73 71 69 65
78 78 81 83 84 83 79 78 76 70 65 63 62 60 59 58 52 43 34 29 28 29 29 34 44 51 51 53 58 59 56 56 58 59 60 67 77 80 77 77 77 72
82 82 82 81 82 83 81 80 79 76 71 69 66 62 60 59 57 50 42 34 30 29 30 34 43 53 53 52 57 61 60 58 60 62 66 73 80 81 78 81 83 78
82 82 81 79 79 80 81 82 83 81 78 76 72 65 61 60 60 57 52 44 36 30 30 33 39 50 54 52 55 60 60 58 61 69 75 77 76 75 79 85 84 78
Wind_Speed
15 14 13 14 14 14 14 14 15 15 16 16 14 13 11 11 11 11 10 10 11 12 10 8 6 5 5 6 7 9 10 12 13 15 16 17 18 18 18 18 18 19
16 16 16 16 16 15 15 16 17 17 17 17 15 13 12 12 13 13 11 11 12 12 10 8 7 6 5 5 7 8 10 12 13 14 15 15 16 16 17 17 17 17
18 18 18 18 18 18 18 18 19 19 19 18 16 14 12 13 15 15 13 13 13 13 11 9 7 6 6 5 6 8 10 11 12 13 13 14 14 15 15 16 16 17
20 20 20 20 20 21 21 20 20 21 21 19 17 15 14 14 15 16 15 14 14 14 12 10 8 7 6 5 6 8 9 10 11 12 12 13 14 15 15 16 17 17
21 22 23 23 23 24 23 21 21 22 23 21 19 17 15 15 16 17 17 16 16 15 13 11 9 8 6 5 6 7 8 8 10 11 12 14 15 17 18 19 19 20
21 22 23 24 24 25 24 22 23 24 24 23 21 18 16 15 16 18 18 18 18 17 14 13 11 9 7 6 6 6 6 8 10 11 13 15 17 19 21 22 22 22
19 21 22 24 24 25 24 23 24 24 25 24 23 20 17 17 17 18 19 19 19 18 16 14 12 10 8 6 6 6 6 8 10 12 14 17 19 21 22 23 24 23
16 18 20 22 23 24 24 24 24 25 26 25 23 21 19 18 18 19 19 19 20 19 17 16 13 11 9 7 6 6 7 9 11 13 15 17 20 22 23 23 23 22
12 14 16 18 20 22 23 25 25 27 27 26 24 22 20 19 19 19 19 19 20 20 19 17 15 12 10 8 7 6 8 10 12 14 16 18 21 23 23 23 22 22
10 11 13 15 17 19 22 25 27 28 28 27 26 24 21 20 21 20 19 19 20 21 20 18 16 14 11 9 8 7 10 11 12 14 16 19 21 22 24 24 23 22
11 10 10 11 13 14 18 23 27 29 29 28 27 25 23 22 22 21 19 19 20 22 21 19 18 15 12 10 9 9 11 12 12 14 17 19 20 22 24 25 25 25
12 11 10 10 10 11 14 18 24 29 31 30 29 27 24 23 23 22 20 19 21 23 23 20 19 17 14 12 11 12 13 12 13 15 17 19 20 21 23 24 25 25
13 11 11 11 11 12 13 15 19 25 30 31 30 28 26 24 24 22 21 21 22 24 23 21 20 18 15 13 14 15 14 13 13 15 18 19 20 21 22 22 23 25
13 13 13 13 13 14 13 14 17 21 25 29 29 28 27 25 24 23 22 22 23 24 23 22 21 19 16 15 16 16 15 14 14 16 18 19 21 22 22 22 23 24
15 15 15 15 15 16 15 15 16 19 22 25 26 26 26 26 25 24 23 23 24 25 24 22 21 19 17 17 17 17 15 14 15 17 19 20 21 22 22 23 24 24
17 17 18 18 17 17 17 17 18 18 20 22 23 25 26 26 25 24 24 24 25 25 24 23 22 20 18 18 18 17 16 15 16 18 20 20 21 22 23 24 25 25
19 19 19 19 19 18 18 19 20 20 20 21 22 24 26 26 26 24 23 25 26 26 25 24 23 21 20 20 18 17 16 17 18 19 20 21 22 22 24 26 27 27
19 19 20 20 20 20 20 21 21 21 21 21 22 23 24 26 26 25 24 25 26 26 25 25 24 23 22 20 18 17 18 18 19 20 21 20 21 22 24 27 29 29
18 18 19 20 21 22 23 24 23 21 21 21 21 22 23 24 25 25 25 26 27 26 26 26 26 24 23 21 19 19 19 20 20 21 20 19 20 22 24 26 28 30
19 18 19 22 24 25 26 26 25 23 22 22 21 21 21 22 24 24 24 26 28 27 27 28 27 25 23 22 21 21 21 22 21 20 19 18 19 21 23 24 27 29
21 20 21 23 25 27 28 28 27 25 24 23 22 21 21 21 23 24 24 26 28 29 29 30 28 26 24 23 23 23 24 24 22 20 18 18 19 21 23 23 25 27
23 23 23 24 25 26 27 28 29 28 26 25 24 23 22 21 23 24 24 26 29 31 31 31 29 27 26 26 25 25 25 25 22 20 18 18 20 21 23 23 24 26
26 27 27 27 27 27 28 28 29 30 29 28 26 24 23 23 23 25 25 27 30 32 32 31 30 29 28 28 27 27 27 25 22 20 19 19 21 23 23 24 25 26
27 30 31 31 31 31 31 31 32 31 31 31 28 26 26 25 25 26 27 28 30 32 33 32 32 31 31 30 30 29 28 26 23 21 20 20 23 25 25 25 26 27
30 34 36 35 34 35 35 35 35 34 35 35 32 29 29 29 28 27 28 29 31 33 34 35 35 34 33 33 32 31 29 27 24 22 22 23 26 28 27 27 28 28
34 37 38 37 36 37 37 36 35 35 36 37 36 32 31 32 31 30 30 30 32 34 37 37 37 37 36 35 35 33 31 29 26 23 24 27 29 29 27 28 29 29
Wind_Direction
243 245 243 242 242 242 243 243 242 241 244 249 252 256 264 271 276 274 263 254 259 267 267 266 274 283 295 314 325 331 335 341 344 345 348 349 349 351 353 354 354 351
245 247 247 247 247 247 244 243 244 244 245 247 250 255 263 269 273 273 262 250 255 262 260 259 267 274 288 309 323 330 335 340 345 349 351 351 351 351 351 351 351 349
244 246 248 249 249 249 245 243 243 245 247 249 250 252 256 262 271 275 266 253 254 257 253 252 259 266 281 303 319 328 334 339 347 351 350 349 348 347 345 345 345 344
242 242 243 245 247 247 246 245 245 246 248 250 249 249 251 258 268 274 268 257 254 254 248 245 251 257 274 294 312 324 332 340 347 348 344 342 340 339 337 335 335 335
239 238 239 240 243 246 247 246 246 247 249 249 249 249 250 254 262 269 268 259 254 252 245 241 244 250 262 281 304 318 328 339 344 340 335 333 332 331 329 327 327 328
239 238 238 239 240 244 247 247 246 247 248 249 249 249 248 250 256 264 267 263 257 252 245 240 239 242 250 267 292 306 320 334 334 328 326 328 328 327 325 324 325 327
241 238 237 238 239 241 244 246 247 249 250 250 250 250 248 247 251 258 264 264 259 252 245 240 238 237 242 257 275 287 306 319 318 318 323 327 326 325 325 326 326 327
245 241 239 240 240 241 242 243 246 248 249 250 251 251 249 245 245 251 259 263 261 254 247 243 239 236 238 247 258 269 290 303 309 317 323 324 325 328 329 329 330 330
255 249 245 244 243 243 242 242 243 245 247 248 249 249 247 244 244 247 253 259 260 255 249 245 243 239 238 241 245 261 280 292 306 315 319 321 326 330 331 332 334 334
271 262 254 250 247 244 241 240 241 242 245 246 247 247 245 243 243 244 248 254 257 255 249 246 245 242 241 239 239 256 274 286 300 308 313 320 326 329 330 332 334 333
280 275 265 256 253 250 244 240 240 241 242 243 244 245 243 242 242 243 246 249 253 253 249 245 245 245 243 238 240 255 267 279 292 301 311 321 326 328 329 331 331 331
284 286 277 264 262 264 258 249 243 241 242 243 243 242 241 240 240 241 241 243 247 249 248 245 245 246 243 238 243 254 263 274 287 300 314 322 325 327 328 330 330 330
283 286 283 273 269 272 275 270 257 248 244 244 243 242 239 238 238 239 239 239 243 247 246 244 245 246 243 240 246 254 262 275 290 305 317 322 323 324 326 329 329 330
278 280 284 281 275 274 280 286 279 264 253 248 244 242 239 237 236 237 238 237 240 244 244 243 245 246 242 242 249 257 265 279 294 307 316 319 319 320 323 327 328 328
272 273 281 287 286 281 280 283 285 279 268 259 251 244 241 240 238 238 238 238 239 240 240 241 244 244 242 244 252 260 267 280 295 305 311 313 313 315 320 323 325 326
268 269 274 284 292 291 286 282 280 280 277 271 264 255 251 251 250 246 241 239 239 238 238 239 242 242 242 246 254 262 270 280 293 301 305 305 307 311 317 320 321 322
268 269 272 279 287 292 293 289 283 280 279 277 274 270 267 267 267 261 250 242 240 238 236 237 239 240 241 245 254 263 271 280 289 295 297 299 303 309 315 319 319 317
266 268 270 275 282 287 291 291 289 288 286 285 282 279 276 276 277 274 260 247 242 240 237 236 237 238 240 245 253 262 270 277 284 288 290 296 303 309 315 319 317 315
266 269 270 274 279 283 285 286 289 293 295 294 290 285 283 281 281 278 266 253 247 243 239 237 236 236 238 244 251 259 266 272 276 280 286 294 303 310 316 317 315 317
265 270 271 271 273 277 280 281 284 289 292 295 296 295 294 288 282 278 270 259 252 245 240 238 236 235 237 243 249 256 262 267 270 275 284 295 305 311 316 316 315 317
262 267 269 268 268 270 274 276 278 282 286 290 294 297 299 292 283 277 270 261 254 247 241 238 236 234 237 242 248 254 260 264 268 273 283 295 304 310 313 315 316 316
256 260 263 266 267 268 271 274 275 276 280 283 286 290 293 292 286 281 274 264 257 251 243 238 236 235 238 242 247 252 258 263 266 272 282 293 299 304 308 311 313 315
253 255 258 263 266 269 273 274 273 271 272 275 279 283 286 287 286 283 277 267 259 254 247 241 236 236 239 242 246 250 256 261 264 269 279 287 292 296 300 304 309 312
249 251 253 256 260 262 264 265 266 266 266 268 271 274 278 281 282 280 276 269 261 255 249 242 237 237 239 242 245 249 254 257 261 267 275 281 286 289 292 298 302 306
248 251 254 258 260 259 258 256 256 256 259 260 262 266 271 274 276 277 277 273 264 256 250 244 239 237 239 243 246 248 252 255 258 263 271 277 279 281 286 292 296 301
252 255 260 264 267 268 267 263 256 251 253 255 255 258 263 266 269 272 275 274 267 258 252 248 244 240 241 245 247 248 250 254 256 262 268 271 272 275 280 286 291 296